Regional Weather Roundup
Issued by NWS Grand Forks, ND

Home | Current Version | Previous Version | Graphics & Text | Print | Product List | Glossary On
Versions: 1 2 3 4 5 6 7 8 9 10 11 12 13 14 15 16 17 18 19 20 21 22 23 24 25 26 27 28 29 30 31 32 33 34 35 36 37 38 39 40 41 42 43 44 45 46 47 48 49 50
000
ASUS43 KFGF 201831
RWRFGF
PRAIRIE TO PINES  WEATHER ROUNDUP
NATIONAL WEATHER SERVICE EASTERN NORTH DAKOTA/GRAND FORKS ND
1200 PM CST FRI JAN 20 2017

 **SATELLITE DATA USED TO AUGMENT SKY COVER AT AUTOMATED STATIONS**
 *****  WEATHER ACROSS EASTERN NORTH DAKOTA  *****

CITY           SKY/WX    TMP DP  RH WIND       PRES   REMARKS
GRAND FORKS    CLOUDY    36  33  89 SE12      29.50F FOG
6HR MIN TEMP:  35; 6HR MAX TEMP:  36;

GRAND FRKS AFB CLOUDY    36  34  93 SE12      29.48F FOG
DEVILS LAKE    MIX PCPN  34  34 100 SE9       29.43F FOG
6HR MIN TEMP:  31; 6HR MAX TEMP:  34; 6HR PCP: TRACE;

FARGO          CLOUDY    38  35  89 SE12      29.50F FOG
WAHPETON ARPT  CLOUDY    34  32  93 SE10      29.50F
$$

 ***** WEATHER ACROSS CENTRAL AND WESTERN NORTH DAKOTA  *****

CITY           SKY/WX    TMP DP  RH WIND       PRES   REMARKS
BISMARCK       CLOUDY    28  26  92 W3        29.40F FOG
6HR MIN TEMP:  22; 6HR MAX TEMP:  28;

MINOT          FAIR      25  20  81 S8        29.38F WCI  16
6HR MIN TEMP:  16; 6HR MAX TEMP:  25;

JAMESTOWN      FOG       33  33 100 SE15      29.41F VSB 1   WCI  23
6HR MIN TEMP:  33; 6HR MAX TEMP:  34;

MINOT AFB      MOSUNNY   21  19  93 S3        29.36F
GARRISON         N/A     20  17  88 S3        29.39F
WILLISTON      FAIR      23  18  81 CALM      29.38F
6HR MIN TEMP:  10; 6HR MAX TEMP:  23;

DICKINSON      FAIR      29  25  85 NW7       29.34S WCI  22
6HR MIN TEMP:  20; 6HR MAX TEMP:  29;

HETTINGER      FAIR      33  27  78 N13       29.36F WCI  24
6HR MIN TEMP:  21; 6HR MAX TEMP:  33;

$$

 *****  OTHER AIRPORT OBSERVATIONS IN OUR AREA  *****

CITY           SKY/WX    TMP DP  RH WIND       PRES   REMARKS
WALHALLA       NOT AVBL
GRAFTON AIRPOR FOG       34  34 100 SE10      29.51F VSB<1/4
VALLEY CITY AR MIX PCPN  34  34 100 SE13      29.46F WCI  25
CANDO          NOT AVBL
CAVALIER APRT  FOG       36  36 100 S8        29.48F VSB<1/4
GWINNER        CLOUDY    34  34 100 E15       29.44F WCI  24
SHEYENNE NWR     N/A     34  33  97 SE7       29.95
ROLLA            N/A    N/A N/A N/A MISG        N/A
 ***** THE ABOVE OBSERVATIONS ARE NON NWS ARE NOT QUALITY
       CONTROLLED AND MAY MIS-REPORT RAIN FOR SNOW...
$$

  *****  WEATHER ACROSS NORTHERN MINNESOTA  *****

CITY           SKY/WX    TMP DP  RH WIND       PRES   REMARKS
FLAG ISLAND    CLOUDY    36  34  93 SE5       29.53F FOG
WARROAD        CLOUDY    36  30  80 E6        29.53F FOG
ROSEAU         CLOUDY    36  30  80 E3        29.52F HAZE
HALLOCK        CLOUDY    36  36 100 SE10      29.49F FOG
THF RVR FALLS  CLOUDY    36  33  89 SE9       29.51F
6HR MIN TEMP:  34; 6HR MAX TEMP:  36;

BAUDETTE       CLOUDY    36  34  92 SE8       29.54F FOG
6HR MIN TEMP:  34; 6HR MAX TEMP:  36;

WASKISH        CLOUDY    37  37 100 SE9       29.53F
CROOKSTON      CLOUDY    36  34  93 S7        29.51F FOG
STEPHEN NDAWN    N/A     36  34  93 SE8         N/A
GREENBUSH NDAW   N/A     36  36 100 SE6         N/A
$$
  *****  WEATHER ACROSS CENTRAL AND WEST MINNESOTA  *****

CITY           SKY/WX    TMP DP  RH WIND       PRES   REMARKS
FOSSTON        CLOUDY    36  36 100 SE6       29.51S
BEMIDJI        CLOUDY    34  33  97 SE8       29.53S FOG
PARK RAPIDS    FOG       35  32  88 SE7       29.52F VSB 1
6HR MIN TEMP:  34; 6HR MAX TEMP:  35; 6HR PCP: TRACE;

ELBOW LAKE     LGT RAIN  33  33 100 E9        29.52S VSB 3/4
6HR MIN TEMP:  33; 6HR MAX TEMP:  33;

WADENA         FOG       34  34 100 SE9       29.52F VSB 1/2
DETROIT LAKES  CLOUDY    34  34 100 SE9       29.51F FOG
MOORHEAD       FOG       34  34 100 SE8       29.51F VSB 1
FERGUS FALLS   CLOUDY    34  34 100 SE9       29.55F FOG
MORRIS MN      CLOUDY    34  34 100 SE12      29.50F FOG
STAPLES        CLOUDY    34  34 100 SE5       29.54F FOG
$$
  *****  WEATHER ELSEWHERE ACROSS MINNESOTA  *****

CITY           SKY/WX    TMP DP  RH WIND       PRES   REMARKS
DULUTH         LGT RAIN  35  34  96 E10       29.59F FOG
6HR MIN TEMP:  33; 6HR MAX TEMP:  35; 6HR PCP: TRACE;

INTRNTL FALLS  CLOUDY    38  34  85 SE7       29.58F
6HR MIN TEMP:  33; 6HR MAX TEMP:  38;

ELY            PTSUNNY   36  36 100 CALM      29.61F
CLOQUET        DRZL/FOG  36  34  93 E7        29.57F VSB 3/4
WHEATON        CLOUDY    41  41 100 E12       29.51F FOG
BRAINERD       FOG       35  34  96 SE3       29.55F VSB 1
6HR MIN TEMP:  34; 6HR MAX TEMP:  35; 6HR PCP:  0.02;

HIBBING        CLOUDY    34  34 100 SE8       29.57F FOG
6HR MIN TEMP:  28; 6HR MAX TEMP:  33; 6HR PCP: TRACE;

ALEXANDRIA     CLOUDY    33  33 100 SE12      29.52F FOG     WCI  24
6HR MIN TEMP:  33; 6HR MAX TEMP:  33; 6HR PCP: TRACE;

SAINT CLOUD    FOG       34  34 100 SE8       29.56F VSB 1/2
6HR MIN TEMP:  34; 6HR MAX TEMP:  35;

MINNEAPOLIS    CLOUDY    36  34  92 S7        29.59F
6HR MIN TEMP:  34; 6HR MAX TEMP:  36; 6HR PCP: TRACE;

$$

  *****  WEATHER ACROSS SOUTH DAKOTA  *****

CITY           SKY/WX    TMP DP  RH WIND       PRES   REMARKS
SIOUX FALLS    CLOUDY    40  39  97 S16G23    29.47F FOG
6HR MIN TEMP:  37; 6HR MAX TEMP:  40;

BROOKINGS      CLOUDY    37  36  93 SE18      29.43F FOG
WATERTOWN      CLOUDY    36  35  96 SE10      29.42F
6HR MIN TEMP:  35; 6HR MAX TEMP:  36;

HURON          CLOUDY    37  36  96 S13       29.39F
6HR MIN TEMP:  36; 6HR MAX TEMP:  37;

SISSETON         N/A     35  35 100 S10       29.46F
ABERDEEN       CLOUDY    35  32  88 SE8       29.41F
6HR MIN TEMP:  33; 6HR MAX TEMP:  35;

MITCHELL       CLOUDY    40  37  89 S15       29.41F
PIERRE         FAIR      17  14  88 SW8       29.36F WCI   7
6HR MIN TEMP:  13; 6HR MAX TEMP:  18;

MOBRIDGE       FOG       26  22  84 N7        29.33F VSB 1   WCI  18
RAPID CITY     FAIR      41  31  67 NW23      29.34F
6HR MIN TEMP:  26; 6HR MAX TEMP:  41;

$$

  *****  SOME WEATHER IN NEARBY STATES *****

CITY           SKY/WX    TMP DP  RH WIND       PRES   REMARKS
GLASGOW MT     FAIR      33  28  81 W9        29.40F
6HR MIN TEMP:  28; 6HR MAX TEMP:  34;

GREAT FALLS MT FAIR      38  25  59 SW15      29.42F
6HR MIN TEMP:  31; 6HR MAX TEMP:  38;

CHEYENNE WY    CLOUDY    36  22  56 NW13      29.42F
6HR MIN TEMP:  31; 6HR MAX TEMP:  37; 6HR PCP:  0.01;

SCOTTSBLUFF NE FAIR      38  27  64 W10       29.41F
6HR MIN TEMP:  25; 6HR MAX TEMP:  38;

OMAHA NE       CLOUDY    43  39  86 SE6       29.52F
6HR MIN TEMP:  39; 6HR MAX TEMP:  43; 6HR PCP: TRACE;

DES MOINES IA  CLOUDY    41  40  96 E6        29.57F FOG
6HR MIN TEMP:  37; 6HR MAX TEMP:  41;

DAVENPORT IA   CLOUDY    41  39  93 S8        29.61F
6HR MIN TEMP:  35; 6HR MAX TEMP:  41;

CHICAGO IL     CLOUDY    40  38  93 CALM      29.63F FOG
6HR MIN TEMP:  38; 6HR MAX TEMP:  40; 6HR PCP:  0.01;

EAU CLAIRE WI  CLOUDY    36  34  92 SE9       29.61F FOG
6HR MIN TEMP:  34; 6HR MAX TEMP:  36; 6HR PCP:  0.04;

LA CROSSE WI   CLOUDY    39  36  89 CALM      29.61F FOG
6HR MIN TEMP:  36; 6HR MAX TEMP:  40;

$$

  *****  SOME NATIONAL WEATHER *****

CITY           SKY/WX    TMP DP  RH WIND       PRES   REMARKS
LA GUARDIA NY  CLOUDY    44  34  67 NE9       29.96F
6HR MIN TEMP:  41; 6HR MAX TEMP:  45;

RALEIGH NC     CLOUDY    54  52  93 VRB3      29.86F FOG
6HR MIN TEMP:  48; 6HR MAX TEMP:  54; 6HR PCP:  0.09;

ATLANTA GA     PTSUNNY   72  54  53 W16G22    29.85F
6HR MIN TEMP:  63; 6HR MAX TEMP:  72;

NEW ORLEANS LA FAIR      77  67  71 W9        29.83F
6HR MIN TEMP:  64; 6HR MAX TEMP:  78;

OKLAHOMA CITY  FAIR      59  37  44 W26G37    29.52F
6HR MIN TEMP:  34; 6HR MAX TEMP:  59;

ALBUQUERQUE NM CLOUDY    40  30  67 SW13      29.76F
6HR MIN TEMP:  33; 6HR MAX TEMP:  41; 6HR PCP: TRACE;

SALT LAKE CITY PTSUNNY   36  32  85 SE12      29.54F
6HR MIN TEMP:  29; 6HR MAX TEMP:  35; 6HR PCP:  0.02;

LOS ANGELES CA LGT RAIN  54  52  93 SE13G21   29.65F FOG
6HR MIN TEMP:  52; 6HR C1F1C2F2C3F3C4F4C5F5C6F6C7F7C8F8C9F9CaFaCbFbCcFcCd!



USA.gov is the U.S. government's official web portal to all federal, state and local government web resources and services.